Tracking 18624 objects as of 27-April-2017
HD Live streaming from Space Station
objects crossing your sky now

EUTELSAT 2-F4

Track EUTELSAT 2-F4 now!
EUTELSAT 2-F4 is classified as:


NORAD ID: 22028
Int'l Code: 1992-041B
Perigee: 36,100.5 km
Apogee: 36,164.6 km
Inclination: 12.8 °
Period: 1,453.4 minutes
Semi major axis: 42503 km
RCS: 3.1622 m2 (large)
Launch date: July 9, 1992
Source: European Telecommunications Satellite Organization (EUTE)
Launch site: FRENCH GUIANA (FRGUI)
Your satellite tracking list
Your tracking list is empty





NASA's NSSDC Master Catalog

Two Line Element Set (TLE):
1 22028U 92041B   17114.84644391 +.00000060 +00000-0 +00000-0 0  9999
2 22028 012.8016 032.2039 0007535 212.1912 338.4551 00.99075267083130
Source of the keplerian elements: AFSPC